Home   Weather   Conception Bay South   Past weeks

Flag for Canada Past Weather in Conception Bay South, Newfoundland and Labrador, Canada — Yesterday and Last 2 Weeks

Now
30 °F

Low clouds.


Feels Like: 15 °F
Forecast: 24 / 46 °F
Wind: 31 mph from South

Location: St. John's

Current Time: Jan 24, 2018 at 7:04:23 am

Latest Report: Jan 24, 2018 at 6:30 am


Visibility: 12 mi

Pressure: 30.11 "Hg

Humidity: 100%

Dew Point: 30 °F

Location of Conception Bay SouthLocation

Past Weather in Conception Bay South — Graph

°F

Conception Bay South Temperature Yesterday

Maximum temperature yesterday: 28 °F (at 2:30 pm)
Minimum temperature yesterday: 16 °F (at 1:30 am)
Average temperature yesterday: 22 °F

High & Low Weather Summary for the Past Weeks

 TemperatureHumidityPressure
High57 °F (Jan 13, 2:30 pm)100% (Jan 9, 12:30 pm)30.78 "Hg (Jan 9, 12:30 pm)
Low14 °F (Jan 11, 4:30 am)40% (Jan 23, 2:30 pm)29.22 "Hg (Jan 21, 12:30 am)
Average29 °F85%29.99 "Hg
* Reported Jan 9 5:30 am — Jan 24 5:30 am, Conception Bay South. Weather by CustomWeather, © 2018

Note: Actual official high and low records may vary slightly from our data, if they occured in-between our weather recording intervals... More about our weather records

Advertising

Conception Bay South Weather History for the Previous 24 Hours

Scroll right to see more
 ConditionsComfort  
Time TempWeatherWind HumidityBarometerVisibility
5:30 am
Wed, Jan 24
30 °FLow clouds.24 mph93%30.16 "Hg15 mi
4:30 am30 °FLow clouds.24 mph93%30.20 "Hg15 mi
3:30 am28 °FLow clouds.18 mph93%30.25 "Hg15 mi
2:30 am28 °FMostly cloudy.17 mph93%30.30 "Hg15 mi
2:13 am28 °FMostly cloudy.16 mph86%30.30 "Hg15 mi
1:30 am27 °FOvercast.15 mph86%30.31 "Hg15 mi
12:30 am27 °FMostly cloudy.14 mph86%30.35 "Hg15 mi
11:30 pm
Tue, Jan 23
25 °FOvercast.7 mph86%30.37 "Hg15 mi
10:30 pm25 °FOvercast.6 mph86%30.41 "Hg15 mi
9:30 pm23 °FPassing clouds.5 mph86%30.41 "Hg15 mi
8:30 pm25 °FPassing clouds.15 mph74%30.41 "Hg15 mi
7:30 pm25 °FPassing clouds.14 mph74%30.41 "Hg15 mi
6:30 pm27 °FPassing clouds.16 mph69%30.41 "Hg15 mi
5:30 pm27 °FPassing clouds.13 mph59%30.40 "Hg15 mi
4:30 pm27 °FPassing clouds.14 mph54%30.40 "Hg15 mi
3:30 pm28 °FPassing clouds.10 mph47%30.38 "Hg15 mi
2:30 pm28 °FScattered clouds.16 mph40%30.37 "Hg15 mi
1:30 pm27 °FScattered clouds.13 mph46%30.37 "Hg15 mi
12:30 pm25 °FPassing clouds.8 mph50%30.39 "Hg15 mi
11:30 am25 °FPassing clouds.18 mph54%30.38 "Hg15 mi
10:30 am23 °FPassing clouds.18 mph58%30.39 "Hg15 mi
9:30 am21 °FPassing clouds.17 mph63%30.34 "Hg15 mi
8:30 am19 °FPassing clouds.18 mph68%30.33 "Hg15 mi
7:30 am18 °FPassing clouds.17 mph73%30.28 "Hg15 mi
Weather by CustomWeather, © 2018

See weather overview